Regional Weather Roundup
Issued by NWS Cleveland, OH

Home | Current Version | Previous Version | Graphics & Text | Print | Product List | Glossary On
Versions: 1 2 3 4 5 6 7 8 9 10 11 12 13 14 15 16 17 18 19 20 21 22 23 24 25 26 27 28 29 30 31 32 33 34 35 36 37 38 39 40 41 42 43 44 45 46 47 48 49 50
000
ASUS41 KCLE 250712
RWRCLE
OHIO REGIONAL WEATHER ROUNDUP
NATIONAL WEATHER SERVICE WILMINGTON, OH
300 AM EDT MON JUL 25 2016

NOTE: "FAIR" INDICATES FEW OR NO CLOUDS BELOW 12,000 FEET WITH NO
SIGNIFICANT WEATHER AND/OR OBSTRUCTIONS TO VISIBILITY.

OHZ001>008-015>018-024>027-034-035-043-044-250800-
   NORTHWEST OHIO

CITY           SKY/WX    TMP DP  RH WIND       PRES   REMARKS
DEFIANCE       CLOUDY    83  73  72 W5        29.92F THUNDER
FINDLAY        FAIR      80  73  79 SW8       29.93F
TOLEDO EXPRESS FAIR      78  76  93 SW7       29.89F
TOLEDO EXEC    FAIR      79  76  90 S7        29.91F
LIMA           FAIR      79  76  90 SW8       29.95F
$$

OHZ009>014-019>023-028>033-038-089-250800-
   NORTHEAST OHIO

CITY           SKY/WX    TMP DP  RH WIND       PRES   REMARKS
CLE-HOPKINS    MOCLDY    79  68  69 S12       29.95F
CLE-LAKEFRONT  FAIR      82  70  66 S12G21    29.91F
CUY CO. ARPT   NOT AVBL
LORAIN-ELYRIA  FAIR      74  69  85 SW7       29.95S
ASHTABULA      FAIR      74  72  93 S8        29.95F
AKRON-CANTON   FAIR      73  69  87 SW6       29.98F
WOOSTER        FAIR      71  68  90 SW5       29.99S
MANSFIELD      FAIR      74  73  97 S7        29.99F
YOUNGSTOWN     MOCLDY    73  70  90 S7        29.98S
$$

OHZ042-051>053-060>062-070>072-077>081-250800-
  SOUTHWEST OHIO

CITY           SKY/WX    TMP DP  RH WIND       PRES   REMARKS
CINC-COVINGTON FAIR      78  75  90 CALM      30.01S
CINC-LUNKEN    FAIR      77  77 100 SW3       30.00R
HAMILTON       FAIR      79  75  87 CALM      30.00S
DAYTON         CLOUDY    79  75  87 W6        30.01S
WRIGHT-PAT AFB FAIR      79  76  92 SW5       29.99S
DAYTON GENERAL FAIR      81  74  79 SW6       30.00S
WILMINGTON     FAIR      75  74  96 S3        30.01R
$$

OHZ036-037-039>041-045>050-054>059-063>069-073>076-082>088-250800-
  CENTRAL AND SOUTHEAST OHIO

CITY           SKY/WX    TMP DP  RH WIND       PRES   REMARKS
COLUMBUS       FAIR      77  73  87 CALM      29.98S
OSU AIRPORT    FAIR      77  73  87 CALM      29.98S
BOLTON FIELD   FAIR      75  74  96 W3        30.00R
RICKENBACK AFB FAIR      75  74  96 S5        29.98S
NEWARK         FAIR      73  72  96 CALM      29.98S
MARION         FAIR      74  72  93 SW3       29.98F
LANCASTER      FAIR      73  72  96 CALM      29.99S FOG
ZANESVILLE     FAIR      78  72  81 CALM      29.99S
NEW PHILLY     FAIR      73  70  90 CALM      29.99S
$$




USA.gov is the U.S. government's official web portal to all federal, state and local government web resources and services.